Temp_Advection
nan nan nan nan nan nan nan nan nan nan nan nan nan nan nan nan nan nan nan nan nan nan nan nan nan nan nan
nan 0 -0 -0 -0 -0 0 -0 -0 0 -0 -0 -0 -0 -0 0 0 0 0 0 -0 -1 -1 0 -0 -0 nan
nan -0 -0 0 -0 0 0 -0 -0 0 0 -0 -0 -0 -0 -0 -0 0 1 0 -0 -0 -0 -0 -0 -0 nan
nan 0 0 -0 -0 0 0 0 0 0 0 0 0 0 -0 -0 -0 -0 0 0 0 -0 0 0 -0 -0 nan
nan 0 -0 -0 -0 -0 -0 0 0 0 0 0 0 -0 -0 0 0 -0 -0 -0 -0 -0 -0 -0 -0 -0 nan
nan 0 0 0 0 0 0 0 0 0 0 0 0 -0 -0 -0 0 -0 -0 -0 -0 -0 -0 -0 -0 -0 nan
nan 0 0 0 -0 -0 0 -0 -0 0 0 0 0 0 0 -0 -0 -0 -0 -0 -0 -0 -0 -0 -0 -0 nan
nan 0 0 -0 -0 -0 -0 -0 -0 0 0 0 0 0 0 0 0 -0 -0 -0 -0 -0 -0 -0 -0 -0 nan
nan 0 0 -0 -0 -0 -0 -0 -0 -0 0 0 0 0 0 0 0 0 -0 -0 -0 -0 -0 -0 -0 -0 nan
nan -0 -0 -0 -0 -0 -0 -0 0 0 0 0 -0 0 0 0 0 -0 0 -0 -0 -0 -0 -0 -0 -0 nan
nan -0 -0 -0 -0 -0 -0 -0 0 0 0 -0 -0 -0 0 0 0 0 -0 -0 -0 -0 -0 -0 -0 -0 nan
nan -0 -0 -0 -0 -0 -0 -0 -0 0 -0 -0 -0 -0 -0 -0 0 0 -0 -0 -0 -0 -0 -0 -0 -0 nan
nan 0 0 -0 -0 -0 -0 -0 -0 -0 -0 -0 -0 -0 -0 -0 -0 -0 -0 -0 -0 -0 -0 -0 -0 -0 nan
nan 0 0 0 -0 -0 -0 -0 -0 -0 -0 -0 -0 -0 -0 -0 -0 -0 -0 -0 -0 -0 -0 0 0 -0 nan
nan 0 0 0 0 0 0 0 0 0 0 -0 -0 -0 -0 0 0 -0 -0 -0 -0 -0 -1 -0 0 0 nan
nan 0 0 0 0 0 0 0 -0 -0 0 -0 -0 -0 -0 -0 -0 -0 -0 -0 -0 0 -0 -1 -0 0 nan
nan nan nan nan nan nan nan nan nan nan nan nan nan nan nan nan nan nan nan nan nan nan nan nan nan nan nan
Wind_Speed
11 10 11 10 9 10 12 12 13 12 10 10 11 10 10 12 12 13 14 11 12 17 21 16 11 9 7
15 13 12 11 15 12 12 13 12 11 11 11 10 11 13 13 11 14 16 16 15 11 13 4 6 5 6
12 12 13 14 14 11 13 12 8 8 9 11 13 13 12 13 14 16 15 14 10 8 9 7 8 9 9
14 14 14 12 10 11 10 8 8 8 9 9 10 11 12 12 12 11 7 4 6 5 3 1 2 3 3
8 10 9 8 8 6 6 7 6 5 6 7 7 7 7 7 5 4 4 4 4 3 5 6 7 8 9
7 7 5 3 3 3 3 3 3 4 4 4 3 2 2 3 3 5 5 5 6 7 9 11 12 14 15
4 4 4 4 5 5 5 4 2 1 2 3 4 4 5 6 7 8 8 9 10 12 14 16 17 17 16
6 6 5 5 4 3 3 3 4 4 5 6 7 8 8 8 9 9 11 12 13 15 17 17 16 15 14
6 5 4 3 3 3 5 6 7 8 9 8 8 9 10 10 9 10 10 12 15 16 15 15 14 13 12
2 1 1 2 4 5 7 8 8 7 6 7 8 8 5 6 7 10 13 13 13 14 13 13 14 13 11
2 3 4 5 6 7 8 7 7 6 8 7 5 7 6 7 9 11 12 12 13 11 12 13 13 14 12
4 5 6 6 6 7 8 7 6 5 5 5 6 7 7 8 7 8 10 11 11 9 12 13 13 13 12
6 7 6 6 7 8 7 6 6 6 6 7 7 8 8 8 8 8 9 7 7 13 11 12 13 11 10
7 7 6 8 8 7 6 6 6 6 7 7 8 8 7 8 8 7 8 7 12 15 13 11 10 12 13
7 6 7 8 7 7 6 6 6 7 7 7 9 8 7 6 5 6 6 8 13 15 16 13 8 11 13
6 6 7 8 7 7 7 7 8 8 7 6 5 3 3 4 4 3 6 11 12 13 14 17 13 10 12
7 7 8 8 8 7 7 7 7 5 5 5 6 6 7 8 3 9 13 13 15 13 14 15 17 13 12
Wind_Direction
295 294 301 300 293 288 297 296 291 301 295 307 299 297 298 314 310 310 312 315 311 308 306 310 294 289 278
279 289 284 289 290 298 291 287 292 281 284 278 286 290 299 311 313 314 310 304 309 319 318 215 261 274 244
275 285 284 276 278 270 275 286 297 280 257 271 279 287 290 299 302 299 299 316 327 318 306 256 283 276 272
271 276 268 271 268 258 263 269 278 277 279 272 278 282 291 300 303 306 305 300 282 311 27 356 303 315 313
258 258 257 252 257 265 274 269 267 262 266 270 279 283 294 299 302 307 311 302 323 346 338 333 326 321 317
231 235 233 221 250 252 234 236 254 259 269 281 281 299 304 299 290 290 301 313 317 315 315 316 315 313 310
178 167 133 110 107 87 82 70 45 324 287 286 285 291 294 296 293 302 299 300 303 308 311 312 312 310 307
130 122 106 92 83 64 31 3 337 312 311 292 286 286 283 285 286 291 292 296 303 308 310 311 311 311 309
116 98 82 66 40 3 346 328 318 307 299 293 283 286 288 281 281 288 295 303 309 309 310 310 310 310 309
136 87 1 344 333 324 319 313 305 299 287 301 298 303 292 279 275 292 300 304 308 309 308 310 309 309 307
258 312 319 316 313 315 317 315 306 286 290 304 300 304 289 283 286 295 300 307 311 312 312 311 310 309 308
289 301 301 301 310 319 320 318 313 307 304 312 311 310 307 308 306 300 308 312 318 317 319 315 313 307 304
284 290 292 302 314 319 318 313 310 312 312 312 315 319 320 319 317 320 325 325 320 325 321 317 313 306 299
281 282 292 307 313 313 311 308 306 304 307 313 320 324 321 322 325 323 320 319 321 330 326 324 313 307 306
274 281 295 302 303 300 298 298 301 306 308 313 318 328 333 326 310 324 328 311 318 324 323 324 325 308 300
271 278 291 293 288 287 295 302 305 311 313 322 332 338 341 338 334 331 325 322 321 323 324 321 325 321 305
267 277 286 282 278 283 297 300 303 307 324 345 353 8 14 23 11 345 330 331 330 336 334 330 330 335 319
Height
1515 1513 1514 1513 1512 1512 1511 1510 1509 1509 1509 1508 1508 1508 1507 1506 1504 1503 1502 1500 1499 1498 1497 1496 1495 1495 1494
1511 1511 1511 1510 1510 1509 1509 1508 1507 1506 1506 1506 1505 1505 1504 1503 1502 1501 1500 1498 1496 1495 1494 1493 1492 1491 1489
1508 1507 1507 1508 1507 1507 1506 1505 1504 1504 1504 1504 1503 1503 1501 1500 1499 1498 1497 1496 1495 1493 1492 1491 1490 1489 1488
1505 1504 1505 1504 1504 1504 1503 1502 1502 1501 1501 1501 1501 1500 1498 1497 1496 1496 1495 1495 1495 1493 1492 1491 1489 1487 1486
1502 1502 1501 1501 1501 1500 1500 1499 1499 1499 1499 1499 1499 1497 1497 1496 1496 1496 1495 1495 1494 1493 1491 1490 1488 1486 1484
1499 1500 1499 1499 1499 1498 1497 1497 1498 1498 1497 1497 1497 1496 1496 1496 1496 1495 1495 1494 1493 1491 1490 1488 1486 1483 1481
1498 1499 1498 1498 1498 1497 1497 1497 1497 1497 1497 1496 1496 1495 1495 1495 1494 1494 1493 1492 1491 1490 1487 1485 1482 1479 1477
1498 1499 1498 1498 1498 1498 1498 1498 1497 1496 1496 1495 1495 1494 1494 1493 1492 1492 1491 1490 1488 1486 1483 1481 1478 1475 1473
1498 1498 1499 1498 1498 1498 1498 1497 1496 1495 1494 1494 1493 1492 1491 1490 1489 1489 1488 1486 1484 1482 1479 1477 1474 1472 1470
1498 1498 1498 1498 1498 1497 1497 1496 1494 1493 1493 1492 1491 1490 1488 1487 1487 1486 1485 1483 1481 1479 1476 1474 1471 1469 1467
1497 1497 1497 1497 1497 1496 1495 1493 1492 1491 1490 1489 1488 1487 1487 1486 1484 1483 1481 1480 1478 1476 1473 1471 1468 1466 1464
1496 1496 1496 1496 1495 1494 1492 1491 1490 1489 1488 1487 1486 1485 1483 1482 1481 1480 1479 1476 1474 1473 1470 1468 1466 1464 1461
1495 1495 1495 1494 1493 1492 1491 1489 1488 1487 1486 1485 1483 1482 1480 1479 1478 1477 1475 1473 1471 1469 1468 1465 1463 1461 1460
1493 1493 1493 1492 1491 1490 1489 1487 1486 1485 1484 1482 1480 1479 1478 1476 1475 1474 1472 1471 1469 1467 1465 1464 1462 1459 1456
1491 1491 1490 1489 1488 1487 1487 1486 1484 1483 1481 1480 1478 1476 1475 1474 1473 1471 1470 1469 1468 1465 1463 1461 1460 1456 1454
1488 1488 1487 1487 1487 1486 1485 1484 1482 1481 1479 1477 1476 1474 1473 1472 1471 1470 1469 1468 1466 1464 1461 1457 1455 1453 1450
1486 1485 1485 1485 1485 1484 1483 1481 1480 1478 1476 1475 1473 1472 1471 1470 1470 1469 1467 1466 1463 1461 1458 1455 1452 1450 1447